• Join FlightAware (Why Join?)
  • Login
  • US Flag 
02:48PM EDT


 

Airport Tracker/Info


-or-


 

Live Flight TrackerFlight Track Log ✈ SWA268 ✈ 14-Apr-2013 ✈ KTPA - KBUF

Flight Track Log - Related Links

Times and Time Zones

All times are in EDT time to prevent confusion due to time zone crossing. See the SWA268 flight status page for this flight to view local times or setup timezone preferences in your user account.

Time Position Orientation Groundspeed Altitude Reporting Facility
EDT Latitude Longitude Course Direction KTS MPH feet Rate Location/Type
07:12PM 27.9667 -82.5500 180° South 160 184 1,100  Level Tampa TRACON
07:13PM 27.9500 -82.5500 180° South 154 177 1,900 2,520 Climbing Tampa TRACON
07:14PM 27.8833 -82.5833 204° Southwest 217 250 5,200 2,820 Climbing Tampa TRACON
07:15PM 27.9333 -82.6167 330° Northwest 277 319 7,900 2,880 Climbing Tampa TRACON
07:17PM 28.0828 -82.6056 North 342 394 12,700 3,240 Climbing Jacksonville Center
07:18PM 28.1767 -82.5958 North 342 394 16,300 3,240 Climbing Jacksonville Center
07:19PM 28.2706 -82.5908 North 347 399 19,200 2,040 Climbing Jacksonville Center
07:20PM 28.3792 -82.5836 North 359 413 20,400 2,100 Climbing Jacksonville Center
07:21PM 28.4897 -82.5856 359° North 381 438 23,400 2,760 Climbing Jacksonville Center
07:22PM 28.5983 -82.5875 359° North 387 445 26,000 1,260 Climbing Jacksonville Center
07:23PM 28.7108 -82.5919 358° North 392 451 26,000  Level Jacksonville Center
07:24PM 28.8342 -82.6128 352° North 415 478 26,100 720 Climbing Jacksonville Center
07:25PM 28.9572 -82.6292 353° North 435 501 27,500 1,380 Climbing Jacksonville Center
07:26PM 29.0889 -82.6478 353° North 455 524 28,900 1,380 Climbing Jacksonville Center
07:27PM 29.2183 -82.6667 353° North 466 536 30,300 1,500 Climbing Jacksonville Center
07:28PM 29.3497 -82.6831 354° North 472 543 31,900 900 Climbing Jacksonville Center
07:29PM 29.4875 -82.6969 355° North 488 562 32,100 780 Climbing Jacksonville Center
07:30PM 29.6233 -82.6942 North 476 548 33,500 1,440 Climbing Jacksonville Center
07:31PM 29.7569 -82.6917 North 476 548 35,000 1,260 Climbing Jacksonville Center
07:32PM 29.8781 -82.6914 360° North 481 554 36,100 1,320 Climbing Jacksonville Center
07:33PM 30.0117 -82.6911 360° North 476 548 37,700 1,440 Climbing Jacksonville Center
07:34PM 30.1389 -82.6861 North 471 542 39,000 600 Climbing Jacksonville Center
07:35PM 30.2664 -82.6858 360° North 466 536 39,000  Level Jacksonville Center
07:36PM 30.3936 -82.6856 360° North 455 524 39,000  Level Jacksonville Center
07:37PM 30.5253 -82.6803 North 455 524 39,000 -60 Level Jacksonville Center
07:38PM 30.6567 -82.6631 North 460 529 38,900  Descending Jacksonville Center
07:39PM 30.7861 -82.6483 North 460 529 39,000  Climbing Jacksonville Center
07:40PM 30.9219 -82.6333 North 466 536 39,000  Level Jacksonville Center
07:41PM 31.0556 -82.6211 North 472 543 39,000  Level Jacksonville Center
07:42PM 31.1911 -82.6061 North 478 550 39,000  Level Jacksonville Center
07:43PM 31.3228 -82.5911 North 478 550 39,000  Level Jacksonville Center
07:44PM 31.4708 -82.5711 North 483 556 39,000  Level Jacksonville Center
07:45PM 31.6044 -82.5558 North 483 556 39,000  Level Jacksonville Center
07:46PM 31.7381 -82.5408 North 483 556 39,000  Level Jacksonville Center
07:47PM 31.9064 -82.5269 North 494 568 39,000  Level Atlanta Center
07:48PM 32.0397 -82.5100 North 494 568 39,000  Level Atlanta Center
07:49PM 32.1772 -82.4953 North 494 568 39,000  Level Atlanta Center
07:50PM 32.3150 -82.4831 North 499 574 39,000  Level Atlanta Center
07:51PM 32.4503 -82.4636 North 499 574 39,000  Level Atlanta Center
07:52PM 32.5881 -82.4561 North 494 568 39,000  Level Atlanta Center
07:53PM 32.7275 -82.4364 North 499 574 39,000  Level Atlanta Center
07:54PM 32.8653 -82.4214 North 499 574 39,000  Level Atlanta Center
07:55PM 33.0006 -82.4089 North 499 574 39,000  Level Atlanta Center
07:56PM 33.1383 -82.3917 North 494 568 39,000  Level Atlanta Center
07:57PM 33.2778 -82.3739 North 494 568 39,000  Level Atlanta Center
07:58PM 33.4133 -82.3639 North 494 568 39,000  Level Atlanta Center
07:59PM 33.5508 -82.3464 North 500 575 39,000  Level Atlanta Center
08:00PM 33.7031 -82.3283 North 490 564 39,000  Level Atlanta Center
08:01PM 33.8428 -82.3131 North 502 578 39,000  Level Atlanta Center
08:02PM 33.9803 -82.2978 North 489 563 39,000  Level Atlanta Center
08:03PM 34.1175 -82.2775 North 500 575 39,000  Level Atlanta Center
08:04PM 34.2486 -82.2419 13° North 508 585 39,000  Level Atlanta Center
08:05PM 34.3858 -82.1989 15° North 508 585 39,000  Level Atlanta Center
08:06PM 34.5228 -82.1531 15° North 508 585 39,000  Level Atlanta Center
08:07PM 34.6619 -82.1094 14° North 508 585 39,000  Level Atlanta Center
08:08PM 34.7989 -82.0633 15° North 508 585 39,000  Level Atlanta Center
08:09PM 34.9339 -82.0244 13° North 508 585 39,000  Level Atlanta Center
08:10PM 35.0708 -81.9781 15° North 503 579 39,000  Level Atlanta Center
08:11PM 35.2078 -81.9367 14° North 510 587 39,000  Level Atlanta Center
08:12PM 35.3550 -81.8844 16° North 505 581 39,000  Level Atlanta Center
08:13PM 35.4942 -81.8400 15° North 511 588 39,000  Level Atlanta Center
08:14PM 35.6311 -81.7953 15° North 511 588 39,000  Level Atlanta Center
08:15PM 35.7678 -81.7481 16° North 511 588 39,000  Level Atlanta Center
08:16PM 35.9089 -81.7006 15° North 511 588 39,000  Level Atlanta Center
08:17PM 36.0456 -81.6556 15° North 511 588 39,000  Level Atlanta Center
08:18PM 36.1700 -81.6133 15° North 511 588 39,000  Level Atlanta Center
08:19PM 36.3067 -81.5681 15° North 506 582 39,000  Level Atlanta Center
08:20PM 36.4453 -81.5197 16° North 506 582 39,000  Level Atlanta Center
08:21PM 36.5842 -81.4689 16° North 515 593 39,000  Level Atlanta Center
08:23PM 36.9103 -81.3603 15° North 523 602 39,000  Level Indianapolis Center
08:24PM 37.0578 -81.3069 16° North 513 590 39,000  Level Indianapolis Center
08:25PM 37.1978 -81.2589 15° North 518 596 39,000  Level Indianapolis Center
08:26PM 37.3406 -81.2089 16° North 512 589 39,000  Level Indianapolis Center
08:27PM 37.4772 -81.1622 15° North 517 595 39,000  Level Indianapolis Center
08:28PM 37.6122 -81.1147 16° North 515 593 39,000  Level Indianapolis Center
08:29PM 37.7481 -81.0675 15° North 517 595 39,000  Level Indianapolis Center
08:30PM 37.8978 -81.0144 16° North 516 594 39,000  Level Indianapolis Center
08:31PM 38.0378 -80.9650 16° North 521 600 39,000  Level Indianapolis Center
08:32PM 38.1761 -80.9153 16° North 522 601 39,000  Level Indianapolis Center
08:34PM 38.3142 -80.8647 16° North 519 597 39,000  Level Indianapolis Center
08:35PM 38.4789 -80.8061 16° North 517 595 39,000  Level Indianapolis Center
08:36PM 38.6172 -80.7561 16° North 518 596 39,000  Level Indianapolis Center
08:37PM 38.7539 -80.7056 16° North 515 593 39,000  Level Indianapolis Center
08:38PM 38.8931 -80.6544 16° North 520 598 39,000  Level Indianapolis Center
08:39PM 39.0317 -80.6042 16° North 520 598 39,000  Level Indianapolis Center
08:40PM 39.1714 -80.5533 16° North 522 601 39,000  Level Indianapolis Center
08:41PM 39.3114 -80.5019 16° North 525 604 39,000  Level Indianapolis Center
08:41PM 39.4375 -80.4567 15° North 513 590 39,000  Level Cleveland Center
08:42PM 39.5792 -80.4053 16° North 513 590 39,000  Level Cleveland Center
08:43PM 39.7189 -80.3536 16° North 513 590 39,000  Level Cleveland Center
08:44PM 39.8606 -80.3019 16° North 513 590 39,000  Level Cleveland Center
08:45PM 40.0000 -80.2497 16° North 513 590 39,000 -480 Level Cleveland Center
08:46PM 40.1353 -80.1975 16° North 513 590 38,100 -960 Descending Cleveland Center
08:47PM 40.2747 -80.1478 15° North 513 590 37,100 -1,740 Descending Cleveland Center
08:48PM 40.4100 -80.0950 17° North 513 590 34,700 -2,820 Descending Cleveland Center
08:49PM 40.5433 -80.0447 16° North 503 579 31,500 -1,860 Descending Cleveland Center
08:50PM 40.6764 -79.9917 17° North 497 572 31,000 -600 Descending Cleveland Center
08:51PM 40.8075 -79.9411 16° North 497 572 30,300 -840 Descending Cleveland Center
08:52PM 40.9406 -79.8878 17° North 497 572 29,400 -960 Descending Cleveland Center
08:53PM 41.0736 -79.8367 16° North 497 572 28,400 -1,500 Descending Cleveland Center
08:54PM 41.2025 -79.7883 16° North 491 565 26,500 -1,500 Descending Cleveland Center
08:55PM 41.3336 -79.7369 16° North 491 565 25,400 -1,200 Descending Cleveland Center
08:56PM 41.4561 -79.6883 17° North 477 549 24,200 -720 Descending Cleveland Center
08:57PM 41.5725 -79.6422 17° North 449 517 24,000 -120 Descending Cleveland Center
08:58PM 41.6869 -79.5961 17° North 431 496 24,000  Level Cleveland Center
08:59PM 41.8053 -79.5497 16° North 431 496 24,000 -300 Level Cleveland Center
09:00PM 41.9194 -79.5033 17° North 431 496 23,500 -1,440 Descending Cleveland Center
09:01PM 42.0336 -79.4622 15° North 431 496 21,200 -2,400 Descending Cleveland Center
09:02PM 42.1417 -79.4156 18° North 419 482 18,800 -2,340 Descending Cleveland Center
09:03PM 42.2456 -79.3742 16° North 399 459 16,600 -2,340 Descending Cleveland Center
09:04PM 42.3450 -79.3331 17° North 385 443 14,200 -2,280 Descending Cleveland Center
09:05PM 42.4425 -79.2917 17° North 370 426 12,100 -1,620 Descending Cleveland Center
09:06PM 42.5483 -79.2503 16° North 363 418 11,000 -1,080 Descending Cleveland Center
09:07PM 42.6397 -79.2114 17° North 350 403 10,000 -780 Descending Cleveland Center
09:08PM 42.7183 -79.1644 24° Northeast 317 365 9,500 -1,080 Descending Cleveland Center
09:09PM 42.7756 -79.0842 46° Northeast 284 327 7,900 -1,260 Descending Cleveland Center
09:10PM 42.8414 -79.0203 35° Northeast 296 341 7,000 -480 Descending Cleveland Center
09:11PM 42.8992 -78.9650 35° Northeast 291 335 7,000 -720 Level Cleveland Center
09:12PM 42.9628 -78.9036 35° Northeast 286 329 5,600 -900 Descending Cleveland Center
09:14PM 43.0333 -78.8167 42° Northeast 235 270 5,000 -600 Descending Buffalo TRACON
09:15PM 43.0667 -78.7333 61° Northeast 231 266 4,200 -720 Descending Buffalo TRACON
09:16PM 43.0333 -78.6500 119° Southeast 176 203 3,500 -1,080 Descending Buffalo TRACON
09:17PM 43.0000 -78.6500 180° South 135 155 2,100 -1,080 Descending Buffalo TRACON
09:18PM 42.9667 -78.6833 216° Southwest 138 159 1,500 -600 Descending Buffalo TRACON